Regional Weather Roundup
Issued by NWS Upton, NY

Current Version | Previous Version | Graphics & Text | Print | Product List | Glossary Off
Versions: 1 2 3 4 5 6 7 8 9 10 11 12 13 14 15 16 17 18 19 20 21 22 23 24 25 26 27 28 29 30 31 32 33 34 35 36 37 38 39 40 41 42 43 44 45 46 47 48 49 50

000
ASUS41 KOKX 271507
RWROKX

REGIONAL WEATHER ROUNDUP
NATIONAL WEATHER SERVICE NEW YORK NY
1100 AM EDT FRI MAR 27 2015

NOTE: "FAIR" INDICATES FEW OR NO CLOUDS BELOW 12,000 FEET WITH NO
SIGNIFICANT WEATHER AND/OR OBSTRUCTIONS TO VISIBILITY.

NYZ071-072-176-178-NJZ106-104-271600-
NEW YORK CITY METRO AREA


CITY           SKY/WX    TMP DP  RH WIND       PRES   REMARKS
CENTRAL PARK   CLOUDY    41  35  79 VRB6      29.78R
LAGUARDIA APRT CLOUDY    42  34  73 VRB5      29.75F
KENNEDY INTL   CLOUDY    43  36  76 N9        29.76S
NEWARK/LIBERTY CLOUDY    43  36  76 NW10      29.78R
BRNX BOT. GARD   N/A     41  36  81 NW2       29.79R
TETERBORO      CLOUDY    42  35  76 N8        29.76R
$$

NYZ177-179-078>081-271600-
LONG ISLAND NEW YORK

CITY           SKY/WX    TMP DP  RH WIND       PRES   REMARKS
FARMINGDALE    CLOUDY    42  37  82 N7        29.74F
ISLIP          CLOUDY    42  37  82 N9        29.71F
SHIRLEY        CLOUDY    41  37  86 N9        29.75S
WESTHAMPTON    CLOUDY    41  37  86 N10       29.75R
MONTAUK POINT    N/A     41  38  89 N6        29.73S
$$

NYZ052-065-067-271600-
HUDSON VALLEY

CITY           SKY/WX    TMP DP  RH WIND       PRES   REMARKS
WHITE PLAINS   CLOUDY    40  35  83 N10       29.73F WCI  33
NEWBURGH       CLOUDY    39  37  93 VRB3      29.76S
MONTGOMERY     CLOUDY    41  37  86 CALM      29.75R
POUGHKEEPSIE   CLOUDY    42  36  79 N6        29.76R
ALBANY         CLOUDY    40  30  67 W8        29.76S WCI  34
$$

NJZ001-105-106-008-010-013-015-019>022-104-271600-
NEW JERSEY

CITY           SKY/WX    TMP DP  RH WIND       PRES   REMARKS
NEWARK/LIBERTY CLOUDY    43  36  76 NW10      29.78R
TETERBORO      CLOUDY    42  35  76 N8        29.76R
CALDWELL       CLOUDY    42  33  70 VRB5      29.78R
MORRISTOWN     CLOUDY    43  36  75 N8        29.78R
SOMERVILLE     CLOUDY    43  34  70 VRB6      29.77R
SUSSEX         CLOUDY    42  32  67 N6        29.77R
ANDOVER          N/A     41  32  70 N8        29.76R
TRENTON        CLOUDY    41  35  79 NW7       29.78R
MILLVILLE      CLOUDY    42  37  82 N12       29.77F
ATLANTIC CITY  CLOUDY    41  36  82 N14       29.77S
WRIGHTSTOWN    LGT RAIN  40  38  92 NW10      29.76R WCI  34
TOMS RIVER     CLOUDY    41  37  87 N9        29.76F
BELMAR         CLOUDY    41  34  75 NW10      29.76S
$$

PAZ047>061-062-071-271600-
EASTERN PENNSYLVANIA

CITY           SKY/WX    TMP DP  RH WIND       PRES   REMARKS
PHILADELPHIA   CLOUDY    42  35  76 NW7       29.79F
ALLENTOWN      CLOUDY    42  31  64 N6        29.78R
SCRANTON       CLOUDY    39  28  64 NW13      29.76F WCI  31
$$

CTZ002-004>006-009-010-012-RIZ004-006-007-MAZ004-011-015-271600-
SOUTHERN NEW ENGLAND
 IN CT

CITY           SKY/WX    TMP DP  RH WIND       PRES   REMARKS
BRADLEY INTL   CLOUDY    41  36  82 N6        29.73F
HARTFORD       CLOUDY    41  35  79 VRB5      29.74F
DANBURY        CLOUDY    40  32  73 NE7       29.74F
WTRBRY/OXFORD  PTSUNNY   37  30  75 N9G20     29.73F WCI  31
BRIDGEPORT     CLOUDY    42  37  82 N7        29.73F
MERIDEN        CLOUDY    41  34  76 N7        29.73F
NEW HAVEN      CLOUDY    41  37  86 N9        29.73F
CHESTER        PTSUNNY   39  37  93 N7        29.72F WCI  34
GROTON         CLOUDY    42  39  89 N8        29.72S
WILLIMANTIC    LGT RAIN  40  37  89 NW5       29.73R

 IN RI

CITY           SKY/WX    TMP DP  RH WIND       PRES   REMARKS
PROVIDENCE     CLOUDY    42  37  82 N9        29.72S
BLOCK ISLAND   CLOUDY    39  37  93 NE7       29.70F WCI  34
WESTERLY       CLOUDY    42  38  85 N6        29.71S

 IN MA

CITY           SKY/WX    TMP DP  RH WIND       PRES   REMARKS
BOSTON         CLOUDY    41  38  89 N5        29.73F
WORCESTER      CLOUDY    38  34  85 NW5       29.70R WCI  34
WESTFIELD      CLOUDY    42  36  79 NE3       29.72F
PROVINCETOWN   CLOUDY    39  37  93 N7        29.72S WCI  34
NANTUCKET      CLOUDY    41  38  89 N22       29.68S
$$

ANZ330-335-338-340-345-350-353-355-271600-
COASTAL MARINE OBSERVATIONS


STATION/POSITION TIME  SKY/WX   TEMP    WIND        PRES    VSBY  WAVE
                                AIR SEA DIR/SP/G                  HT/PER
                 (UTC)          (F)     (DEG/KT/KT) (MB)    (MI)  (FT/S)
NY HARB ENTRANCE 1450            40 38  340/  8/  8 1007.4          4/10
4S FIRE IS       1403               36                N/A           6/10
20S FIRE ISLAND  1350               38              1007.4          6/11
23SW MTP         1450                                 N/A           9/11
HUDSON CANYON    NOT AVBL
EXECUTION ROCKS  NOT AVBL
WESTERN LI SOUND NOT AVBL
CENTRAL LI SOUND NOT AVBL
EASTERN LI SOUND NOT AVBL
ROBBINS REEF     1400            40     350/  7/  9 1006.6
$$


>>>>>>>>>>>>>>>>>>>>>>>>>>>> KEY <<<<<<<<<<<<<<<<<<<<<<<<<<<
>                                                          <
>     SKY/WX - SKY CONDITION/PRESENT WEATHER               <
>     TMP    - TEMPERATURE IN FAHRENHEIT                   <
>     DP     - DEWPOINT IN FAHRENHEIT                      <
>     RH     - RELATIVE HUMIDITY IN PERCENT                <
>     WIND   - DIRECTION AND SPEED IN MPH                  <
>     PRES   - MEAN SEA LEVEL PRESSURE IN INCHES OF HG     <
>     WCI    - WIND CHILL INDEX                            <
>     VSB    - VISIBILITY IN MILES                         <
>     HX     - HEAT INDEX                                  <
>     TC     - TEMPERATURE IN CELSIUS                      <
>     VRB    - VARIABLE WIND DIRECTION                     <
>                                                          <
>>>>>>>>>>>>>>>>>>>>>>>>>>>> KEY <<<<<<<<<<<<<<<<<<<<<<<<<<<





USA.gov is the U.S. government's official web portal to all federal, state and local government web resources and services.